| time (UTC) | temp F | wind direction | speed MPH | gust MPH | rain 1hr in | rain 24hr in | rain mn in | humidity % | barometer mb |
| 20260831183055 | 80 | 0 | 0.0 | 2.0 | 0.10 | 0.24 | 0.10 | 83 | 1023.7 |
| 20260831182534 | 81 | 300 | 0.0 | 1.0 | 0.02 | 0.16 | 0.02 | 81 | 1023.6 |
| 20260831182035 | 81 | 0 | 0.0 | 1.0 | 0.00 | 0.14 | 0.00 | 77 | 1023.4 |
| 20260831181556 | 82 | 0 | 0.0 | 1.0 | 0.00 | 0.14 | 0.00 | 75 | 1023.3 |
| 20260831181033 | 82 | 0 | 0.0 | 3.0 | 0.00 | 0.14 | 0.00 | 71 | 1023.4 |
| 20260831180533 | 82 | 0 | 0.0 | 3.0 | 0.00 | 0.14 | 0.00 | 72 | 1023.2 |
| 20260831180108 | 82 | 0 | 0.0 | 3.0 | 0.00 | 0.14 | 0.00 | 72 | 1023.4 |
| 20260831175534 | 82 | 0 | 0.0 | 1.0 | 0.00 | 0.14 | 0.00 | 74 | 1023.4 |
| 20260831175032 | 82 | 0 | 0.0 | 4.0 | 0.00 | 0.14 | 0.00 | 74 | 1023.3 |
| 20260831174600 | 83 | 0 | 0.0 | 5.0 | 0.00 | 0.14 | 0.00 | 75 | 1023.4 |
| 20260831174036 | 83 | 206 | 0.0 | 5.0 | 0.00 | 0.14 | 0.00 | 71 | 1023.4 |
| 20260831173534 | 83 | 208 | 0.0 | 3.0 | 0.00 | 0.14 | 0.00 | 72 | 1023.4 |
| 20260831173126 | 83 | 0 | 0.0 | 7.0 | 0.00 | 0.14 | 0.00 | 72 | 1023.4 |
| 20260831172532 | 83 | 0 | 1.0 | 7.0 | 0.00 | 0.14 | 0.00 | 71 | 1023.5 |
| 20260831172034 | 83 | 196 | 0.0 | 7.0 | 0.00 | 0.14 | 0.00 | 73 | 1023.5 |
| 20260831171557 | 83 | 0 | 0.0 | 3.0 | 0.00 | 0.14 | 0.00 | 73 | 1023.6 |
| 20260831171035 | 83 | 0 | 0.0 | 2.0 | 0.00 | 0.14 | 0.00 | 75 | 1023.6 |
| 20260831170535 | 83 | 0 | 0.0 | 1.0 | 0.00 | 0.14 | 0.00 | 74 | 1023.6 |
| 20260831170114 | 82 | 0 | 0.0 | 0.0 | 0.00 | 0.14 | 0.00 | 75 | 1023.7 |
| 20260831165533 | 82 | 0 | 0.0 | 3.0 | 0.00 | 0.14 | 0.00 | 76 | 1023.7 |
| 20260831165035 | 81 | 0 | 0.0 | 4.0 | 0.00 | 0.14 | 0.00 | 76 | 1023.7 |
| 20260831164607 | 81 | 0 | 0.0 | 4.0 | 0.00 | 0.14 | 0.00 | 75 | 1023.8 |
| 20260831164032 | 81 | 0 | 0.0 | 0.0 | 0.00 | 0.14 | 0.00 | 75 | 1023.9 |
| 20260831163532 | 81 | 0 | 0.0 | 0.0 | 0.00 | 0.14 | 0.00 | 77 | 1023.9 |
| 20260831163055 | 81 | 0 | 0.0 | 0.0 | 0.00 | 0.14 | 0.00 | 76 | 1023.9 |
| 20260831162536 | 81 | 0 | 0.0 | 0.0 | 0.00 | 0.14 | 0.00 | 76 | 1023.9 |
| 20260831162034 | 80 | 0 | 0.0 | 0.0 | 0.00 | 0.14 | 0.00 | 77 | 1024.1 |
| 20260831161600 | 80 | 0 | 0.0 | 0.0 | 0.00 | 0.14 | 0.00 | 77 | 1023.9 |
| 20260831161033 | 80 | 0 | 0.0 | 0.0 | 0.00 | 0.14 | 0.00 | 77 | 1024.1 |
| 20260831160534 | 79 | 0 | 0.0 | 0.0 | 0.00 | 0.14 | 0.00 | 77 | 1024.2 |
| 20260831160103 | 79 | 0 | 0.0 | 0.0 | 0.00 | 0.14 | 0.00 | 76 | 1024.2 |
| 20260831155534 | 79 | 0 | 0.0 | 0.0 | 0.00 | 0.14 | 0.00 | 77 | 1024.3 |
| 20260831155038 | 79 | 0 | 0.0 | 0.0 | 0.00 | 0.14 | 0.00 | 79 | 1024.3 |
| 20260831154618 | 78 | 0 | 0.0 | 0.0 | 0.00 | 0.14 | 0.00 | 78 | 1024.2 |
| 20260831154034 | 78 | 0 | 0.0 | 0.0 | 0.00 | 0.14 | 0.00 | 79 | 1024.4 |
| 20260831153533 | 78 | 0 | 0.0 | 0.0 | 0.00 | 0.14 | 0.00 | 80 | 1024.4 |
| 20260831153056 | 78 | 0 | 0.0 | 0.0 | 0.00 | 0.14 | 0.00 | 81 | 1024.4 |
| 20260831152534 | 78 | 0 | 0.0 | 0.0 | 0.00 | 0.14 | 0.00 | 81 | 1024.4 |
| 20260831152034 | 77 | 0 | 0.0 | 0.0 | 0.00 | 0.14 | 0.00 | 80 | 1024.3 |
| 20260831151557 | 77 | 0 | 0.0 | 0.0 | 0.00 | 0.14 | 0.00 | 82 | 1024.3 |
| 20260831151034 | 77 | 0 | 0.0 | 0.0 | 0.00 | 0.14 | 0.00 | 81 | 1024.3 |
| 20260831150534 | 76 | 0 | 0.0 | 0.0 | 0.00 | 0.14 | 0.00 | 83 | 1024.3 |
| 20260831150106 | 76 | 0 | 0.0 | 0.0 | 0.00 | 0.14 | 0.00 | 84 | 1024.4 |
| 20260831145534 | 76 | 0 | 0.0 | 0.0 | 0.00 | 0.14 | 0.00 | 85 | 1024.4 |
| 20260831145036 | 75 | 0 | 0.0 | 0.0 | 0.00 | 0.14 | 0.00 | 85 | 1024.5 |
| 20260831144556 | 75 | 0 | 0.0 | 0.0 | 0.00 | 0.14 | 0.00 | 85 | 1024.5 |
| 20260831144034 | 74 | 0 | 0.0 | 0.0 | 0.00 | 0.14 | 0.00 | 86 | 1024.5 |
| 20260831143534 | 74 | 0 | 0.0 | 0.0 | 0.00 | 0.14 | 0.00 | 87 | 1024.4 |
| 20260831143104 | 73 | 0 | 0.0 | 0.0 | 0.00 | 0.14 | 0.00 | 90 | 1024.5 |
| 20260831142534 | 72 | 0 | 0.0 | 0.0 | 0.00 | 0.14 | 0.00 | 93 | 1024.4 |
| 20260831142034 | 71 | 0 | 0.0 | 0.0 | 0.00 | 0.14 | 0.00 | 95 | 1024.4 |
| 20260831141607 | 71 | 0 | 0.0 | 0.0 | 0.00 | 0.14 | 0.00 | 96 | 1024.2 |
| 20260831141033 | 70 | 0 | 0.0 | 0.0 | 0.00 | 0.14 | 0.00 | 97 | 1024.3 |
| 20260831140534 | 70 | 0 | 0.0 | 0.0 | 0.00 | 0.14 | 0.00 | 97 | 1024.1 |
| 20260831135534 | 69 | 0 | 0.0 | 0.0 | 0.00 | 0.14 | 0.00 | 97 | 1024.2 |
| 20260831135034 | 69 | 0 | 0.0 | 0.0 | 0.00 | 0.14 | 0.00 | 97 | 1024.2 |
| 20260831134559 | 69 | 0 | 0.0 | 0.0 | 0.00 | 0.14 | 0.00 | 97 | 1024.2 |
| 20260831134033 | 68 | 0 | 0.0 | 0.0 | 0.00 | 0.14 | 0.00 | 97 | 1024.0 |
| 20260831133537 | 68 | 0 | 0.0 | 0.0 | 0.00 | 0.14 | 0.00 | 97 | 1024.0 |
| 20260831133054 | 68 | 0 | 0.0 | 0.0 | 0.00 | 0.14 | 0.00 | 97 | 1023.8 |
| 20260831132534 | 68 | 0 | 0.0 | 0.0 | 0.00 | 0.14 | 0.00 | 97 | 1023.9 |
| 20260831132034 | 67 | 0 | 0.0 | 0.0 | 0.00 | 0.14 | 0.00 | 97 | 1023.8 |
| 20260831131555 | 67 | 0 | 0.0 | 0.0 | 0.00 | 0.14 | 0.00 | 97 | 1023.8 |
| 20260831131036 | 67 | 0 | 0.0 | 0.0 | 0.00 | 0.14 | 0.00 | 97 | 1023.8 |
| 20260831130536 | 67 | 0 | 0.0 | 0.0 | 0.00 | 0.14 | 0.00 | 97 | 1023.8 |
| 20260831130104 | 66 | 0 | 0.0 | 0.0 | 0.00 | 0.14 | 0.00 | 97 | 1023.7 |
| 20260831125538 | 66 | 0 | 0.0 | 0.0 | 0.00 | 0.14 | 0.00 | 97 | 1023.7 |
| 20260831125034 | 66 | 0 | 0.0 | 0.0 | 0.00 | 0.14 | 0.00 | 97 | 1023.6 |
| 20260831124607 | 66 | 0 | 0.0 | 0.0 | 0.00 | 0.14 | 0.00 | 97 | 1023.7 |
| 20260831124035 | 66 | 0 | 0.0 | 0.0 | 0.00 | 0.14 | 0.00 | 97 | 1023.7 |
| 20260831123533 | 65 | 0 | 0.0 | 0.0 | 0.00 | 0.14 | 0.00 | 97 | 1023.4 |
| 20260831123056 | 65 | 0 | 0.0 | 0.0 | 0.00 | 0.14 | 0.00 | 97 | 1023.5 |
| 20260831122533 | 65 | 0 | 0.0 | 0.0 | 0.00 | 0.14 | 0.00 | 97 | 1023.4 |
| 20260831122034 | 65 | 0 | 0.0 | 0.0 | 0.00 | 0.14 | 0.00 | 97 | 1023.4 |
| 20260831121556 | 65 | 0 | 0.0 | 0.0 | 0.00 | 0.14 | 0.00 | 97 | 1023.6 |
| 20260831121034 | 65 | 0 | 0.0 | 0.0 | 0.00 | 0.14 | 0.00 | 97 | 1023.5 |
| 20260831120534 | 65 | 0 | 0.0 | 0.0 | 0.00 | 0.14 | 0.00 | 96 | 1023.5 |
| 20260831120054 | 65 | 0 | 0.0 | 0.0 | 0.00 | 0.14 | 0.00 | 96 | 1023.5 |
| 20260831115533 | 64 | 0 | 0.0 | 0.0 | 0.00 | 0.14 | 0.00 | 96 | 1023.4 |
| 20260831115034 | 64 | 0 | 0.0 | 0.0 | 0.00 | 0.14 | 0.00 | 96 | 1023.3 |
| 20260831114600 | 64 | 0 | 0.0 | 0.0 | 0.00 | 0.14 | 0.00 | 96 | 1023.4 |
| 20260831114035 | 64 | 0 | 0.0 | 0.0 | 0.00 | 0.14 | 0.00 | 96 | 1023.4 |
| 20260831113537 | 64 | 0 | 0.0 | 0.0 | 0.00 | 0.14 | 0.00 | 96 | 1023.4 |
| 20260831113059 | 64 | 0 | 0.0 | 0.0 | 0.00 | 0.14 | 0.00 | 96 | 1023.4 |
| 20260831112534 | 64 | 0 | 0.0 | 0.0 | 0.00 | 0.14 | 0.00 | 97 | 1023.4 |
| 20260831112034 | 64 | 0 | 0.0 | 0.0 | 0.00 | 0.14 | 0.00 | 96 | 1023.4 |
| 20260831111607 | 64 | 0 | 0.0 | 0.0 | 0.00 | 0.14 | 0.00 | 96 | 1023.4 |
| 20260831111034 | 64 | 0 | 0.0 | 0.0 | 0.00 | 0.14 | 0.00 | 96 | 1023.4 |
| 20260831110534 | 64 | 0 | 0.0 | 0.0 | 0.00 | 0.14 | 0.00 | 96 | 1023.2 |
| 20260831110052 | 64 | 0 | 0.0 | 0.0 | 0.00 | 0.14 | 0.00 | 96 | 1023.1 |
| 20260831105537 | 64 | 0 | 0.0 | 0.0 | 0.00 | 0.14 | 0.00 | 96 | 1023.1 |
| 20260831105034 | 64 | 0 | 0.0 | 0.0 | 0.00 | 0.14 | 0.00 | 96 | 1023.0 |
| 20260831104608 | 64 | 0 | 0.0 | 0.0 | 0.00 | 0.14 | 0.00 | 96 | 1022.9 |
| 20260831104034 | 64 | 0 | 0.0 | 0.0 | 0.00 | 0.14 | 0.00 | 96 | 1023.1 |
| 20260831103534 | 64 | 0 | 0.0 | 0.0 | 0.00 | 0.14 | 0.00 | 96 | 1022.9 |
| 20260831103104 | 64 | 0 | 0.0 | 0.0 | 0.00 | 0.14 | 0.00 | 96 | 1022.9 |
| 20260831102534 | 64 | 0 | 0.0 | 0.0 | 0.00 | 0.14 | 0.00 | 96 | 1022.9 |
| 20260831102033 | 64 | 0 | 0.0 | 0.0 | 0.00 | 0.14 | 0.00 | 96 | 1022.8 |
| 20260831101600 | 64 | 0 | 0.0 | 0.0 | 0.00 | 0.14 | 0.00 | 96 | 1022.9 |
| 20260831101034 | 64 | 0 | 0.0 | 0.0 | 0.00 | 0.14 | 0.00 | 96 | 1023.1 |
| 20260831100534 | 64 | 0 | 0.0 | 0.0 | 0.00 | 0.14 | 0.00 | 96 | 1023.1 |
| 20260831100053 | 64 | 0 | 0.0 | 0.0 | 0.00 | 0.14 | 0.00 | 96 | 1022.9 |
| 20260831095533 | 64 | 0 | 0.0 | 0.0 | 0.00 | 0.14 | 0.00 | 96 | 1022.9 |
| 20260831095033 | 64 | 0 | 0.0 | 0.0 | 0.00 | 0.14 | 0.00 | 96 | 1022.9 |
| 20260831094612 | 64 | 0 | 0.0 | 0.0 | 0.00 | 0.14 | 0.00 | 96 | 1023.0 |
| 20260831094034 | 64 | 0 | 0.0 | 0.0 | 0.00 | 0.14 | 0.00 | 96 | 1022.9 |
| 20260831093534 | 64 | 0 | 0.0 | 0.0 | 0.00 | 0.14 | 0.00 | 96 | 1022.8 |
| 20260831093057 | 65 | 0 | 0.0 | 0.0 | 0.00 | 0.14 | 0.00 | 96 | 1022.9 |
| 20260831092535 | 65 | 0 | 0.0 | 0.0 | 0.00 | 0.14 | 0.00 | 96 | 1022.8 |
| 20260831092036 | 65 | 0 | 0.0 | 0.0 | 0.00 | 0.14 | 0.00 | 96 | 1022.9 |
| 20260831091554 | 65 | 0 | 0.0 | 0.0 | 0.00 | 0.14 | 0.00 | 96 | 1022.9 |
| 20260831091034 | 65 | 0 | 0.0 | 0.0 | 0.00 | 0.14 | 0.00 | 96 | 1022.9 |
| 20260831090534 | 65 | 0 | 0.0 | 0.0 | 0.00 | 0.14 | 0.00 | 96 | 1022.8 |
| 20260831090059 | 65 | 0 | 0.0 | 0.0 | 0.00 | 0.14 | 0.00 | 96 | 1022.8 |
| 20260831085537 | 65 | 0 | 0.0 | 0.0 | 0.00 | 0.14 | 0.00 | 96 | 1022.7 |
| 20260831085034 | 65 | 0 | 0.0 | 0.0 | 0.00 | 0.14 | 0.00 | 96 | 1022.7 |
| 20260831084547 | 65 | 0 | 0.0 | 0.0 | 0.00 | 0.14 | 0.00 | 96 | 1022.7 |
| 20260831084034 | 65 | 0 | 0.0 | 0.0 | 0.00 | 0.14 | 0.00 | 96 | 1022.8 |
| 20260831083534 | 65 | 0 | 0.0 | 0.0 | 0.00 | 0.14 | 0.00 | 96 | 1022.7 |
| 20260831083102 | 65 | 0 | 0.0 | 0.0 | 0.00 | 0.14 | 0.00 | 96 | 1022.6 |
| 20260831082534 | 65 | 0 | 0.0 | 0.0 | 0.00 | 0.14 | 0.00 | 96 | 1022.5 |
| 20260831082034 | 65 | 0 | 0.0 | 0.0 | 0.00 | 0.14 | 0.00 | 96 | 1022.5 |
| 20260831081602 | 65 | 0 | 0.0 | 0.0 | 0.00 | 0.14 | 0.00 | 96 | 1022.5 |
| 20260831081034 | 65 | 0 | 0.0 | 0.0 | 0.00 | 0.14 | 0.00 | 96 | 1022.5 |
| 20260831080534 | 65 | 0 | 0.0 | 0.0 | 0.00 | 0.14 | 0.00 | 96 | 1022.4 |
| 20260831080053 | 65 | 0 | 0.0 | 0.0 | 0.00 | 0.14 | 0.00 | 96 | 1022.5 |
| 20260831075535 | 65 | 0 | 0.0 | 0.0 | 0.00 | 0.14 | 0.00 | 96 | 1022.5 |
| 20260831075034 | 66 | 0 | 0.0 | 0.0 | 0.00 | 0.14 | 0.00 | 96 | 1022.5 |
| 20260831074551 | 66 | 0 | 0.0 | 0.0 | 0.00 | 0.14 | 0.00 | 96 | 1022.4 |
| 20260831074034 | 66 | 0 | 0.0 | 0.0 | 0.00 | 0.14 | 0.00 | 96 | 1022.5 |
| 20260831073533 | 66 | 0 | 0.0 | 0.0 | 0.00 | 0.14 | 0.00 | 96 | 1022.5 |
| 20260831073100 | 65 | 0 | 0.0 | 0.0 | 0.00 | 0.14 | 0.00 | 96 | 1022.4 |
| 20260831072533 | 66 | 0 | 0.0 | 0.0 | 0.00 | 0.14 | 0.00 | 96 | 1022.6 |
| 20260831072037 | 66 | 0 | 0.0 | 0.0 | 0.00 | 0.14 | 0.00 | 96 | 1022.6 |
| 20260831071557 | 66 | 0 | 0.0 | 0.0 | 0.00 | 0.14 | 0.00 | 96 | 1022.5 |
| 20260831071033 | 66 | 0 | 0.0 | 0.0 | 0.00 | 0.14 | 0.00 | 96 | 1022.5 |
| 20260831070534 | 66 | 0 | 0.0 | 0.0 | 0.00 | 0.14 | 0.00 | 96 | 1022.6 |
| 20260831070056 | 66 | 0 | 0.0 | 0.0 | 0.00 | 0.14 | 0.00 | 96 | 1022.5 |
| 20260831065534 | 66 | 0 | 0.0 | 0.0 | 0.00 | 0.14 | 0.00 | 96 | 1022.7 |
| 20260831065033 | 66 | 0 | 0.0 | 0.0 | 0.00 | 0.14 | 0.00 | 96 | 1022.8 |
| 20260831064558 | 66 | 0 | 0.0 | 0.0 | 0.00 | 0.14 | 0.00 | 96 | 1022.8 |
| 20260831064034 | 66 | 0 | 0.0 | 0.0 | 0.00 | 0.14 | 0.00 | 96 | 1022.7 |
| 20260831063533 | 66 | 0 | 0.0 | 0.0 | 0.00 | 0.14 | 0.00 | 96 | 1022.7 |
| 20260831063056 | 66 | 0 | 0.0 | 0.0 | 0.00 | 0.14 | 0.00 | 96 | 1022.6 |
| 20260831062534 | 66 | 0 | 0.0 | 0.0 | 0.00 | 0.14 | 0.00 | 96 | 1022.8 |
| 20260831062033 | 66 | 0 | 0.0 | 0.0 | 0.00 | 0.14 | 0.00 | 96 | 1022.9 |
| 20260831061555 | 66 | 0 | 0.0 | 0.0 | 0.00 | 0.14 | 0.00 | 96 | 1022.9 |
| 20260831061033 | 66 | 0 | 0.0 | 0.0 | 0.00 | 0.14 | 0.00 | 96 | 1023.0 |
| 20260831060532 | 66 | 0 | 0.0 | 0.0 | 0.00 | 0.14 | 0.00 | 96 | 1022.9 |
| 20260831060053 | 66 | 0 | 0.0 | 0.0 | 0.00 | 0.14 | 0.00 | 96 | 1023.1 |
| 20260831055533 | 66 | 0 | 0.0 | 0.0 | 0.00 | 0.14 | 0.00 | 96 | 1023.1 |
| 20260831055038 | 66 | 0 | 0.0 | 0.0 | 0.00 | 0.14 | 0.00 | 96 | 1023.1 |
| 20260831054601 | 66 | 0 | 0.0 | 0.0 | 0.00 | 0.14 | 0.00 | 96 | 1023.1 |
| 20260831054034 | 67 | 0 | 0.0 | 0.0 | 0.00 | 0.14 | 0.00 | 96 | 1023.2 |
| 20260831053536 | 67 | 0 | 0.0 | 0.0 | 0.00 | 0.14 | 0.00 | 96 | 1023.1 |
| 20260831053102 | 67 | 0 | 0.0 | 0.0 | 0.00 | 0.14 | 0.00 | 96 | 1023.1 |
| 20260831052535 | 67 | 0 | 0.0 | 0.0 | 0.00 | 0.14 | 0.00 | 96 | 1023.1 |
| 20260831052036 | 67 | 0 | 0.0 | 0.0 | 0.00 | 0.14 | 0.00 | 96 | 1023.1 |
| 20260831051555 | 67 | 0 | 0.0 | 0.0 | 0.00 | 0.14 | 0.00 | 96 | 1023.0 |
| 20260831051033 | 67 | 0 | 0.0 | 0.0 | 0.00 | 0.14 | 0.00 | 95 | 1023.2 |
| 20260831050533 | 67 | 0 | 0.0 | 0.0 | 0.00 | 0.14 | 0.00 | 95 | 1023.1 |
| 20260831050110 | 67 | 0 | 0.0 | 0.0 | 0.00 | 0.14 | 0.00 | 95 | 1023.1 |
| 20260831045534 | 67 | 0 | 0.0 | 0.0 | 0.00 | 0.14 | 0.00 | 95 | 1023.0 |
| 20260831045034 | 67 | 0 | 0.0 | 0.0 | 0.00 | 0.14 | 0.00 | 95 | 1023.1 |
| 20260831044607 | 67 | 0 | 0.0 | 0.0 | 0.00 | 0.14 | 0.00 | 95 | 1023.1 |
| 20260831044034 | 67 | 0 | 0.0 | 0.0 | 0.00 | 0.14 | 0.00 | 95 | 1023.0 |
| 20260831043533 | 67 | 0 | 0.0 | 0.0 | 0.00 | 0.14 | 0.00 | 95 | 1023.0 |
| 20260831043047 | 67 | 0 | 0.0 | 0.0 | 0.00 | 0.14 | 0.00 | 95 | 1023.0 |
| 20260831042537 | 67 | 0 | 0.0 | 0.0 | 0.00 | 0.14 | 0.00 | 95 | 1023.2 |
| 20260831042034 | 67 | 0 | 0.0 | 0.0 | 0.00 | 0.14 | 0.00 | 95 | 1023.1 |
| 20260831041613 | 67 | 0 | 0.0 | 0.0 | 0.00 | 0.14 | 0.00 | 95 | 1023.2 |
| 20260831041033 | 67 | 0 | 0.0 | 0.0 | 0.00 | 0.14 | 0.00 | 95 | 1023.2 |
| 20260831040533 | 67 | 0 | 0.0 | 0.0 | 0.00 | 0.14 | 0.00 | 95 | 1023.1 |
| 20260831040050 | 67 | 0 | 0.0 | 0.0 | 0.00 | 0.14 | 0.00 | 95 | 1023.1 |
| 20260831035534 | 67 | 0 | 0.0 | 0.0 | 0.00 | 0.14 | 0.14 | 95 | 1023.1 |
| 20260831035032 | 67 | 0 | 0.0 | 0.0 | 0.00 | 0.14 | 0.14 | 95 | 1023.2 |
| 20260831034605 | 67 | 0 | 0.0 | 0.0 | 0.00 | 0.14 | 0.14 | 95 | 1023.3 |
| 20260831034033 | 67 | 0 | 0.0 | 0.0 | 0.00 | 0.14 | 0.14 | 95 | 1023.3 |
| 20260831033533 | 67 | 0 | 0.0 | 0.0 | 0.00 | 0.14 | 0.14 | 95 | 1023.4 |
| 20260831033104 | 67 | 0 | 0.0 | 0.0 | 0.00 | 0.14 | 0.14 | 95 | 1023.4 |
| 20260831032537 | 68 | 0 | 0.0 | 0.0 | 0.00 | 0.14 | 0.14 | 95 | 1023.5 |
| 20260831032036 | 68 | 0 | 0.0 | 0.0 | 0.00 | 0.14 | 0.14 | 95 | 1023.6 |
| 20260831031600 | 68 | 0 | 0.0 | 0.0 | 0.00 | 0.14 | 0.14 | 95 | 1023.5 |
| 20260831031033 | 68 | 0 | 0.0 | 0.0 | 0.00 | 0.14 | 0.14 | 95 | 1023.5 |
| 20260831030535 | 68 | 0 | 0.0 | 0.0 | 0.00 | 0.14 | 0.14 | 95 | 1023.6 |
| 20260831030058 | 68 | 0 | 0.0 | 0.0 | 0.00 | 0.14 | 0.14 | 95 | 1023.5 |
| 20260831025533 | 68 | 0 | 0.0 | 0.0 | 0.00 | 0.14 | 0.14 | 95 | 1023.6 |
| 20260831025034 | 68 | 0 | 0.0 | 0.0 | 0.00 | 0.14 | 0.14 | 95 | 1023.5 |
| 20260831024614 | 68 | 0 | 0.0 | 0.0 | 0.00 | 0.14 | 0.14 | 95 | 1023.6 |
| 20260831024034 | 68 | 0 | 0.0 | 0.0 | 0.00 | 0.14 | 0.14 | 95 | 1023.6 |
| 20260831023533 | 68 | 0 | 0.0 | 0.0 | 0.00 | 0.14 | 0.14 | 95 | 1023.5 |
| 20260831023057 | 68 | 0 | 0.0 | 0.0 | 0.00 | 0.14 | 0.14 | 95 | 1023.6 |
| 20260831022533 | 68 | 0 | 0.0 | 0.0 | 0.00 | 0.14 | 0.14 | 94 | 1023.5 |
| 20260831022033 | 68 | 0 | 0.0 | 0.0 | 0.00 | 0.14 | 0.14 | 94 | 1023.4 |
| 20260831021556 | 68 | 0 | 0.0 | 0.0 | 0.00 | 0.14 | 0.14 | 94 | 1023.5 |
| 20260831021033 | 68 | 0 | 0.0 | 0.0 | 0.00 | 0.14 | 0.14 | 95 | 1023.4 |
| 20260831020536 | 68 | 0 | 0.0 | 0.0 | 0.00 | 0.14 | 0.14 | 95 | 1023.4 |
| 20260831020106 | 69 | 0 | 0.0 | 0.0 | 0.00 | 0.14 | 0.14 | 95 | 1023.2 |
| 20260831015532 | 69 | 0 | 0.0 | 0.0 | 0.00 | 0.14 | 0.14 | 94 | 1023.1 |
| 20260831015032 | 69 | 0 | 0.0 | 0.0 | 0.00 | 0.14 | 0.14 | 94 | 1023.2 |
| 20260831014608 | 69 | 0 | 0.0 | 0.0 | 0.00 | 0.14 | 0.14 | 94 | 1023.2 |
| 20260831014032 | 69 | 0 | 0.0 | 0.0 | 0.00 | 0.14 | 0.14 | 94 | 1023.1 |
| 20260831013534 | 69 | 0 | 0.0 | 0.0 | 0.00 | 0.14 | 0.14 | 94 | 1023.2 |
| 20260831013058 | 69 | 0 | 0.0 | 0.0 | 0.00 | 0.14 | 0.14 | 94 | 1022.9 |
| 20260831012535 | 69 | 0 | 0.0 | 0.0 | 0.00 | 0.14 | 0.14 | 94 | 1022.9 |
| 20260831012036 | 69 | 0 | 0.0 | 0.0 | 0.00 | 0.14 | 0.14 | 94 | 1022.9 |
| 20260831011606 | 69 | 0 | 0.0 | 0.0 | 0.00 | 0.14 | 0.14 | 94 | 1022.9 |
| 20260831011032 | 69 | 0 | 0.0 | 0.0 | 0.00 | 0.14 | 0.14 | 94 | 1022.7 |
| 20260831010532 | 69 | 0 | 0.0 | 0.0 | 0.00 | 0.14 | 0.14 | 94 | 1022.7 |
| 20260831010053 | 69 | 0 | 0.0 | 0.0 | 0.00 | 0.14 | 0.14 | 94 | 1022.6 |
| 20260831005533 | 70 | 0 | 0.0 | 0.0 | 0.00 | 0.14 | 0.14 | 94 | 1022.6 |
| 20260831005033 | 70 | 0 | 0.0 | 0.0 | 0.00 | 0.14 | 0.14 | 94 | 1022.6 |
| 20260831004600 | 70 | 0 | 0.0 | 0.0 | 0.00 | 0.14 | 0.14 | 94 | 1022.6 |
| 20260831004034 | 70 | 0 | 0.0 | 0.0 | 0.00 | 0.14 | 0.14 | 94 | 1022.5 |
| 20260831003535 | 70 | 0 | 0.0 | 0.0 | 0.00 | 0.14 | 0.14 | 94 | 1022.4 |
| 20260831003104 | 70 | 0 | 0.0 | 0.0 | 0.00 | 0.14 | 0.14 | 94 | 1022.3 |
| 20260831002534 | 70 | 0 | 0.0 | 0.0 | 0.00 | 0.14 | 0.14 | 94 | 1022.3 |
| 20260831002033 | 70 | 0 | 0.0 | 0.0 | 0.00 | 0.14 | 0.14 | 93 | 1022.3 |
| 20260831001557 | 70 | 0 | 0.0 | 0.0 | 0.00 | 0.14 | 0.14 | 94 | 1022.3 |
| 20260831001036 | 70 | 0 | 0.0 | 0.0 | 0.00 | 0.14 | 0.14 | 94 | 1022.3 |
| 20260831000534 | 70 | 0 | 0.0 | 0.0 | 0.00 | 0.14 | 0.14 | 93 | 1022.3 |
| 20260830235535 | 71 | 0 | 0.0 | 0.0 | 0.00 | 0.14 | 0.14 | 93 | 1022.2 |
| 20260830235037 | 71 | 0 | 0.0 | 0.0 | 0.00 | 0.14 | 0.14 | 93 | 1022.2 |
| 20260830234607 | 71 | 0 | 0.0 | 0.0 | 0.00 | 0.14 | 0.14 | 93 | 1022.2 |
| 20260830234032 | 71 | 0 | 0.0 | 0.0 | 0.00 | 0.14 | 0.14 | 93 | 1022.3 |
| 20260830233533 | 71 | 0 | 0.0 | 0.0 | 0.01 | 0.14 | 0.14 | 93 | 1022.2 |
| 20260830233058 | 71 | 0 | 0.0 | 0.0 | 0.01 | 0.14 | 0.14 | 93 | 1022.2 |
| 20260830232538 | 72 | 0 | 0.0 | 0.0 | 0.03 | 0.14 | 0.14 | 93 | 1022.2 |
| 20260830232033 | 72 | 0 | 0.0 | 0.0 | 0.06 | 0.14 | 0.14 | 93 | 1022.2 |
| 20260830231553 | 72 | 0 | 0.0 | 0.0 | 0.11 | 0.14 | 0.14 | 93 | 1022.2 |
| 20260830231037 | 72 | 0 | 0.0 | 2.0 | 0.11 | 0.14 | 0.14 | 92 | 1022.0 |
| 20260830230533 | 72 | 0 | 0.0 | 2.0 | 0.13 | 0.14 | 0.14 | 92 | 1022.2 |
| 20260830225532 | 72 | 324 | 0.0 | 2.0 | 0.14 | 0.14 | 0.14 | 92 | 1022.1 |
| 20260830225037 | 72 | 0 | 0.0 | 2.0 | 0.14 | 0.14 | 0.14 | 91 | 1022.1 |
| 20260830224553 | 73 | 0 | 1.0 | 3.0 | 0.14 | 0.14 | 0.14 | 89 | 1021.9 |
| 20260830224036 | 73 | 319 | 1.0 | 5.0 | 0.14 | 0.14 | 0.14 | 89 | 1022.0 |
| 20260830223533 | 74 | 338 | 1.0 | 5.0 | 0.13 | 0.13 | 0.13 | 88 | 1022.1 |
| 20260830223050 | 75 | 315 | 2.0 | 5.0 | 0.13 | 0.13 | 0.13 | 86 | 1022.2 |
| 20260830222532 | 76 | 343 | 2.0 | 5.0 | 0.11 | 0.11 | 0.11 | 84 | 1022.3 |
| 20260830222034 | 77 | 5 | 3.0 | 5.0 | 0.08 | 0.08 | 0.08 | 85 | 1022.3 |
| 20260830221557 | 78 | 352 | 1.0 | 3.0 | 0.03 | 0.03 | 0.03 | 83 | 1022.3 |
| 20260830221033 | 80 | 0 | 0.0 | 3.0 | 0.02 | 0.02 | 0.02 | 81 | 1022.3 |
| 20260830220533 | 81 | 0 | 1.0 | 3.0 | 0.01 | 0.01 | 0.01 | 78 | 1022.1 |
| 20260830220101 | 82 | 305 | 0.0 | 2.0 | 0.00 | 0.00 | 0.00 | 74 | 1022.0 |
| 20260830215534 | 82 | 0 | 0.0 | 2.0 | 0.00 | 0.00 | 0.00 | 74 | 1022.0 |
| 20260830215034 | 82 | 0 | 0.0 | 2.0 | 0.00 | 0.00 | 0.00 | 74 | 1022.0 |
| 20260830214603 | 82 | 0 | 0.0 | 4.0 | 0.00 | 0.00 | 0.00 | 73 | 1021.9 |
| 20260830214032 | 82 | 0 | 0.0 | 5.0 | 0.00 | 0.00 | 0.00 | 69 | 1021.9 |
| 20260830213533 | 83 | 209 | 1.0 | 5.0 | 0.00 | 0.00 | 0.00 | 67 | 1021.8 |
| 20260830213049 | 83 | 227 | 1.0 | 5.0 | 0.00 | 0.00 | 0.00 | 66 | 1021.8 |
| 20260830212532 | 83 | 262 | 1.0 | 4.0 | 0.00 | 0.00 | 0.00 | 67 | 1021.8 |
| 20260830212032 | 82 | 213 | 1.0 | 4.0 | 0.00 | 0.00 | 0.00 | 67 | 1021.7 |
| 20260830211604 | 83 | 223 | 1.0 | 5.0 | 0.00 | 0.00 | 0.00 | 65 | 1021.7 |
| 20260830211032 | 83 | 0 | 1.0 | 5.0 | 0.00 | 0.00 | 0.00 | 65 | 1021.8 |
| 20260830210534 | 84 | 227 | 1.0 | 5.0 | 0.00 | 0.00 | 0.00 | 65 | 1021.8 |
| 20260830210058 | 84 | 217 | 2.0 | 5.0 | 0.00 | 0.00 | 0.00 | 65 | 1021.7 |
| 20260830205532 | 84 | 0 | 0.0 | 4.0 | 0.00 | 0.00 | 0.00 | 64 | 1021.7 |
| 20260830205036 | 84 | 214 | 2.0 | 7.0 | 0.00 | 0.00 | 0.00 | 63 | 1021.8 |
| 20260830204553 | 84 | 207 | 3.0 | 7.0 | 0.00 | 0.00 | 0.00 | 62 | 1021.8 |
| 20260830204033 | 84 | 205 | 2.0 | 5.0 | 0.00 | 0.00 | 0.00 | 67 | 1022.0 |
| 20260830203533 | 83 | 210 | 1.0 | 6.0 | 0.00 | 0.00 | 0.00 | 67 | 1022.0 |
| 20260830203050 | 83 | 0 | 1.0 | 6.0 | 0.00 | 0.00 | 0.00 | 70 | 1022.0 |
| 20260830202536 | 83 | 213 | 0.0 | 5.0 | 0.00 | 0.00 | 0.00 | 68 | 1022.0 |
| 20260830202033 | 83 | 213 | 1.0 | 5.0 | 0.00 | 0.00 | 0.00 | 67 | 1022.1 |
| 20260830201613 | 83 | 0 | 1.0 | 3.0 | 0.00 | 0.00 | 0.00 | 65 | 1022.0 |
| 20260830201033 | 83 | 0 | 0.0 | 6.0 | 0.00 | 0.00 | 0.00 | 68 | 1022.1 |
| 20260830200532 | 83 | 224 | 1.0 | 6.0 | 0.00 | 0.00 | 0.00 | 67 | 1022.2 |
| 20260830200100 | 83 | 0 | 0.0 | 5.0 | 0.00 | 0.00 | 0.00 | 68 | 1022.2 |
| 20260830195533 | 83 | 201 | 1.0 | 5.0 | 0.00 | 0.00 | 0.00 | 68 | 1022.3 |
| 20260830195032 | 83 | 266 | 1.0 | 5.0 | 0.00 | 0.00 | 0.00 | 69 | 1022.4 |
| 20260830194558 | 83 | 275 | 0.0 | 5.0 | 0.00 | 0.00 | 0.00 | 71 | 1022.5 |
| 20260830194034 | 83 | 207 | 0.0 | 5.0 | 0.00 | 0.00 | 0.00 | 68 | 1022.4 |
| 20260830193533 | 83 | 210 | 1.0 | 5.0 | 0.00 | 0.00 | 0.00 | 65 | 1022.5 |
| 20260830193051 | 83 | 0 | 1.0 | 4.0 | 0.00 | 0.00 | 0.00 | 68 | 1022.6 |
| 20260830192533 | 83 | 207 | 1.0 | 4.0 | 0.00 | 0.00 | 0.00 | 68 | 1022.6 |
| 20260830192033 | 83 | 220 | 1.0 | 4.0 | 0.00 | 0.00 | 0.00 | 67 | 1022.7 |
| 20260830191558 | 83 | 0 | 0.0 | 4.0 | 0.00 | 0.00 | 0.00 | 65 | 1022.7 |
| 20260830191034 | 83 | 203 | 1.0 | 4.0 | 0.00 | 0.00 | 0.00 | 63 | 1022.8 |
| 20260830190534 | 83 | 209 | 1.0 | 7.0 | 0.00 | 0.00 | 0.00 | 65 | 1022.9 |
| 20260830190058 | 83 | 218 | 2.0 | 7.0 | 0.00 | 0.00 | 0.00 | 68 | 1023.1 |
| 20260830185534 | 82 | 0 | 1.0 | 5.0 | 0.00 | 0.00 | 0.00 | 69 | 1023.1 |
| 20260830185033 | 82 | 218 | 2.0 | 5.0 | 0.00 | 0.00 | 0.00 | 67 | 1023.1 |
| 20260830184557 | 82 | 217 | 0.0 | 3.0 | 0.00 | 0.00 | 0.00 | 71 | 1023.1 |
| 20260830184037 | 82 | 217 | 0.0 | 3.0 | 0.00 | 0.00 | 0.00 | 70 | 1023.1 |
| 20260830183534 | 82 | 0 | 0.0 | 3.0 | 0.00 | 0.00 | 0.00 | 72 | 1023.3 |